HAIYANG-2A

Last updated on Thu Jul 03 2025 00:02:29 GMT+0000 (Coordinated Universal Time)

1 37781U 11043A 25183.58098719 .00000002 00000+0 45041-4 0 9990 2 37781 99.3322 187.0139 0001563 115.6809 244.4504 13.78818994698509
UTC large
Height (km)
Speed (km/s)
/
Latitude / Longitude
Inclination (degrees)
Orbital Period (minutes)
Azimuth
Elevation
Range (km)
Doppler Factor

Next 0 passes for location: London (51.5072 / 0.1276)

Sorry there are no passes over London.